Wind_Speed
84 86 90 94 95 95 93 93 92 92 92 90 85 81 75 73 70 67 62 56 51 47 47 49 55 64 75 82 83 90 95 99 101 110 115 125 133 132 125 117 114 109 105 103 95 98 99
85 87 92 95 97 96 95 93 94 94 94 90 87 84 79 77 74 69 62 52 46 40 40 43 47 55 66 79 93 90 95 96 98 107 114 121 132 133 130 122 119 112 108 104 102 102 99
84 89 97 98 97 95 97 96 94 95 94 91 89 86 82 80 75 71 59 48 41 38 34 35 43 47 53 74 90 89 92 92 96 103 110 119 130 134 132 127 123 117 113 109 106 104 101
83 92 99 100 100 98 98 96 95 96 96 90 89 88 85 82 78 73 60 49 41 34 27 29 35 40 54 60 73 86 89 91 93 99 108 117 124 132 134 133 127 121 118 114 110 108 103
85 93 100 101 101 101 101 101 98 98 96 92 90 89 87 84 80 74 64 54 43 30 24 22 32 39 43 53 65 86 96 90 93 98 104 111 118 126 132 132 130 127 121 116 114 110 106
88 93 101 101 103 103 102 101 101 99 97 93 90 88 87 84 80 76 66 54 43 29 20 16 25 34 42 51 58 79 83 87 87 93 98 104 114 121 129 133 129 119 121 120 116 112 108
89 96 101 103 105 105 103 102 102 101 96 93 90 88 87 84 82 78 66 53 41 28 16 9 20 30 39 48 59 72 79 85 86 88 92 97 107 113 118 129 128 127 123 126 120 114 111
89 96 101 101 106 107 105 102 104 101 96 92 92 89 87 85 82 78 65 52 41 28 15 1 14 28 36 45 57 65 74 80 81 81 89 95 100 108 116 123 131 127 121 124 123 117 114
89 96 98 100 107 109 107 104 107 101 96 92 92 90 88 85 82 78 66 50 39 30 16 7 11 22 32 40 50 55 67 72 75 78 83 89 92 100 106 117 121 130 125 122 125 120 117
90 99 98 99 103 109 111 107 106 102 96 92 91 90 87 85 81 78 69 53 40 29 20 12 10 20 26 35 47 54 58 69 74 74 78 85 87 95 98 109 113 121 130 124 121 124 122
92 96 100 102 101 105 108 108 104 103 97 91 91 90 87 84 80 78 70 54 40 30 23 15 9 15 26 35 40 47 54 61 63 65 71 75 80 86 92 98 108 112 125 126 124 124 122
91 96 100 101 102 104 107 110 107 100 97 92 90 90 88 84 81 77 70 53 41 28 26 19 12 12 16 23 31 41 52 57 60 63 68 71 75 79 82 84 93 109 115 125 125 124 122
89 91 96 97 100 99 103 106 104 99 95 92 89 88 86 84 79 74 70 57 40 38 26 21 19 12 14 22 31 41 46 53 58 62 63 67 69 71 75 77 83 95 109 116 124 126 125
88 89 89 96 97 95 98 103 102 97 91 90 88 86 83 79 77 73 68 62 48 37 36 24 19 15 13 19 27 31 37 46 53 56 59 59 64 69 72 73 77 85 99 108 112 121 123
86 86 90 92 95 93 96 101 99 96 90 87 85 83 80 75 72 68 66 62 50 37 33 32 21 12 17 20 25 30 37 39 40 44 45 48 54 59 62 64 70 77 85 95 104 110 117
85 86 91 90 91 91 89 93 95 92 88 88 82 80 79 74 67 64 60 56 46 36 31 26 23 14 7 12 14 16 18 24 30 35 38 40 45 48 52 54 60 66 70 77 86 98 106
83 84 92 90 86 87 87 90 91 90 87 83 81 78 75 72 65 60 56 50 45 32 26 23 17 14 9 4 6 11 15 19 22 25 27 30 34 38 42 45 49 55 61 67 77 85 93
83 87 89 89 84 81 83 88 88 87 86 82 79 75 73 69 64 56 52 48 41 33 25 21 16 10 6 4 8 10 14 16 20 23 25 27 29 32 35 37 41 47 52 61 70 77 83
81 87 88 88 86 81 84 82 85 84 84 81 77 73 70 67 62 58 50 46 39 33 23 19 16 9 4 4 8 10 15 18 20 24 26 27 29 30 32 33 36 39 45 53 63 72 76
82 90 90 88 90 85 86 84 84 81 82 81 75 71 67 64 60 55 50 44 39 32 25 17 15 12 7 2 7 12 15 17 21 24 26 28 29 30 31 34 35 38 42 47 55 64 73
84 91 90 88 88 87 83 82 81 78 76 77 74 68 65 60 58 54 48 43 37 31 24 15 10 8 6 4 1 7 13 16 19 22 25 28 30 32 33 33 34 34 37 44 53 60 63
84 82 95 96 88 87 88 80 76 73 73 75 72 66 64 58 56 53 47 41 35 30 24 19 8 4 2 1 1 3 6 12 17 22 25 27 29 31 32 34 36 38 38 41 42 47 55
88 90 98 95 95 87 90 82 73 73 70 73 71 65 62 56 54 52 46 40 35 30 24 18 14 7 3 2 2 3 4 7 11 15 21 26 29 30 32 33 35 39 41 42 42 42 49
88 94 98 95 90 88 89 87 76 73 70 68 68 63 60 55 53 50 47 41 36 30 25 19 16 13 10 8 8 9 8 9 10 11 16 20 22 26 28 29 30 35 37 40 43 45 46
91 93 98 92 92 92 93 88 76 68 69 68 66 62 58 54 52 48 43 41 38 32 26 20 17 16 16 16 15 13 12 12 14 16 14 15 20 23 25 27 28 29 33 37 40 43 47
100 101 102 97 94 89 86 87 75 69 65 67 64 60 57 54 51 48 43 40 36 34 30 23 19 17 18 20 21 18 16 14 15 19 20 18 18 23 26 26 26 27 30 32 36 39 43
101 107 108 91 93 90 90 85 76 67 63 63 62 58 55 53 49 47 43 41 37 33 30 28 23 21 20 22 24 25 22 18 15 18 20 21 22 22 24 28 28 28 27 28 28 33 35
104 104 107 98 91 91 91 81 74 65 61 58 59 57 53 51 48 46 44 40 39 34 28 28 28 25 23 23 26 29 29 24 18 18 19 19 21 24 26 26 28 32 31 30 32 31 31
105 111 103 99 91 92 91 78 79 67 61 58 56 54 50 49 46 44 43 40 38 35 32 26 28 29 28 26 26 30 34 29 22 22 22 20 20 21 24 26 29 29 31 32 33 33 32
Wind_Direction
342 343 340 338 339 339 341 343 343 344 344 343 343 344 341 337 334 329 324 316 303 288 276 260 244 234 227 226 225 219 215 215 213 213 213 212 213 212 211 212 214 215 214 216 217 220 224
342 343 340 338 339 339 341 345 345 346 345 345 345 346 344 342 338 335 331 321 310 297 280 262 247 235 227 219 223 220 218 215 212 213 213 212 212 213 212 212 213 215 215 216 219 221 223
342 342 341 340 339 341 342 346 347 347 346 347 348 348 346 345 342 341 336 328 315 300 282 261 244 232 225 219 219 221 220 215 212 212 212 212 212 213 212 212 213 213 212 216 218 223 223
340 343 341 340 340 342 343 346 348 349 347 349 350 350 350 347 347 344 341 336 327 310 288 257 242 231 222 218 216 219 220 217 213 211 212 212 212 212 213 213 214 213 212 215 218 222 224
340 341 342 341 341 343 345 346 348 350 348 349 352 353 352 350 350 348 348 343 333 318 297 258 227 221 220 214 209 211 218 217 212 210 212 212 212 213 214 213 213 214 214 214 218 222 224
340 340 343 342 341 343 345 347 348 350 350 350 353 355 354 352 353 354 353 348 341 328 306 260 223 214 208 207 203 207 216 216 214 211 212 212 212 213 213 214 215 216 218 215 217 221 224
341 342 343 342 341 343 345 348 348 351 351 351 353 357 357 355 358 358 355 350 349 343 324 255 215 207 201 200 199 203 209 213 213 211 211 213 214 214 213 214 214 214 219 216 218 219 223
340 343 343 344 342 341 344 349 348 351 352 352 353 357 360 359 1 1 359 355 355 1 359 259 192 197 198 198 197 199 204 208 211 210 211 212 213 214 213 213 214 215 218 221 219 219 221
341 342 342 344 343 341 342 348 348 350 351 353 354 357 1 2 4 4 3 1 6 10 25 72 164 184 191 193 196 202 201 205 208 210 209 212 214 216 214 214 214 214 216 221 222 221 223
340 339 342 343 342 341 342 346 350 350 351 354 354 357 1 3 6 6 8 6 14 20 40 66 135 170 183 190 194 195 200 201 206 208 209 212 211 216 214 214 214 215 217 218 223 223 224
338 339 345 347 344 342 341 343 349 349 350 353 354 356 0 3 5 9 11 9 19 33 40 63 108 163 179 184 190 190 197 200 206 207 210 215 215 217 216 215 214 215 217 218 222 226 225
336 341 345 346 346 342 342 342 348 351 349 352 355 355 358 2 5 9 12 11 25 42 51 59 92 130 165 177 188 194 196 197 202 204 208 212 214 218 219 216 215 215 218 219 221 225 229
339 342 344 347 347 343 342 342 346 351 350 351 354 354 357 360 4 7 11 11 25 42 44 63 72 99 142 163 183 192 196 197 199 204 207 211 213 217 218 217 214 216 218 221 221 224 228
337 341 344 348 348 347 343 341 344 349 352 351 354 353 355 358 1 4 9 9 25 38 48 43 77 97 132 163 178 187 196 198 202 205 209 213 214 215 217 216 214 216 218 221 223 225 228
334 342 343 346 347 347 344 343 344 347 350 351 353 353 352 357 359 3 4 8 18 31 41 45 41 96 140 167 182 193 198 203 202 207 215 218 219 218 219 218 218 217 220 221 224 226 228
335 341 345 346 346 349 346 344 344 346 348 348 351 351 349 354 358 0 4 6 13 25 36 41 43 41 92 168 199 201 203 205 202 207 214 218 221 222 222 220 220 222 221 224 226 228 231
335 338 345 344 346 347 347 347 343 343 345 347 349 349 349 349 355 358 360 5 7 19 34 40 48 48 55 79 160 182 195 195 205 211 215 220 221 221 221 223 221 222 222 223 224 227 230
336 339 344 343 346 348 348 348 343 339 343 345 347 347 347 346 349 354 358 0 6 9 28 38 36 51 79 124 154 169 185 207 201 212 218 218 220 221 222 224 225 223 222 221 222 225 228
334 341 341 345 347 347 347 345 342 339 339 341 345 346 345 345 346 348 354 355 1 5 11 38 42 35 57 180 198 198 194 201 208 206 213 219 222 221 222 221 219 220 221 222 223 225 225
332 339 341 344 345 349 349 345 343 338 335 337 341 344 343 342 343 344 347 351 353 2 4 15 34 42 37 201 211 215 220 215 209 212 213 218 221 223 222 221 220 220 217 218 222 223 225
331 335 340 346 345 345 347 344 340 337 333 334 337 341 340 339 340 341 342 344 346 351 359 2 23 33 42 43 286 238 229 231 228 221 219 221 221 222 221 221 221 219 218 217 220 224 225
329 335 343 344 344 344 344 339 335 334 330 330 334 338 337 335 336 337 338 339 340 341 346 351 344 18 41 52 232 220 222 224 229 229 228 224 223 223 222 222 221 221 219 223 218 217 220
326 337 340 341 342 344 342 342 335 335 330 327 330 334 335 334 332 333 335 333 333 333 334 335 332 295 266 228 225 225 238 234 228 228 228 228 227 225 224 225 225 225 221 223 220 218 219
327 335 337 338 342 343 343 340 336 332 329 325 326 332 333 331 328 329 330 328 326 324 322 323 319 306 271 239 234 240 252 250 240 226 227 231 233 228 222 223 223 223 224 223 224 225 227
328 334 336 340 340 340 343 340 336 332 328 324 325 329 331 328 325 325 325 322 321 317 313 310 305 294 282 256 239 235 242 252 249 238 224 220 220 223 221 223 225 226 224 223 224 223 224
324 332 333 334 339 339 340 339 335 329 328 322 322 325 328 325 323 320 320 317 315 310 308 304 298 285 272 263 248 239 241 244 235 235 233 225 217 215 218 222 221 221 222 224 227 229 230
325 328 332 335 335 336 338 338 330 328 325 324 321 323 325 321 320 316 315 314 313 307 302 299 294 282 269 258 253 243 237 241 231 222 226 225 221 216 214 218 217 217 217 219 220 225 226
323 326 327 329 335 337 336 336 328 326 322 322 320 321 321 319 318 313 310 311 310 306 298 290 288 280 270 255 247 248 238 235 236 221 212 219 223 220 216 214 216 218 219 220 221 223 223
319 322 327 330 331 333 334 332 330 325 320 319 320 319 319 317 316 311 309 307 306 302 297 288 279 278 271 260 247 240 240 233 229 226 216 213 216 220 218 214 217 219 221 222 223 226 225
Height
10733 10720 10704 10688 10670 10655 10639 10623 10604 10586 10566 10546 10528 10510 10493 10476 10457 10439 10421 10405 10393 10383 10379 10379 10386 10394 10404 10417 10431 10435 10448 10459 10484 10499 10517 10535 10552 10572 10594 10613 10627 10647 10663 10672 10692 10690 10695
10727 10712 10696 10679 10661 10644 10629 10613 10594 10575 10554 10535 10517 10495 10477 10458 10438 10418 10399 10384 10372 10363 10358 10357 10361 10369 10381 10397 10391 10414 10425 10446 10466 10480 10497 10517 10537 10557 10575 10593 10609 10631 10649 10664 10673 10676 10689
10720 10706 10688 10670 10652 10637 10618 10602 10584 10565 10544 10522 10504 10484 10462 10441 10421 10399 10382 10367 10355 10346 10341 10340 10341 10350 10360 10365 10377 10398 10411 10431 10450 10466 10483 10498 10515 10536 10562 10579 10593 10612 10632 10646 10659 10665 10679
10713 10699 10680 10662 10645 10626 10607 10590 10574 10554 10533 10513 10495 10473 10449 10428 10405 10383 10367 10352 10340 10331 10325 10324 10327 10333 10341 10353 10369 10385 10398 10416 10436 10450 10463 10478 10497 10520 10544 10562 10580 10597 10614 10630 10644 10652 10667
10707 10693 10673 10652 10634 10618 10601 10583 10566 10546 10525 10504 10484 10463 10439 10417 10395 10373 10354 10339 10328 10319 10313 10312 10313 10320 10329 10340 10357 10371 10375 10398 10419 10435 10448 10467 10488 10508 10530 10549 10565 10580 10604 10621 10628 10642 10656
10700 10685 10666 10646 10625 10609 10592 10574 10557 10538 10517 10497 10478 10458 10434 10412 10389 10364 10346 10331 10319 10309 10303 10302 10304 10311 10318 10328 10344 10359 10365 10391 10411 10426 10441 10461 10475 10493 10514 10532 10559 10588 10596 10609 10619 10631 10647
10696 10679 10659 10640 10618 10600 10584 10568 10548 10531 10510 10491 10473 10454 10432 10409 10384 10360 10343 10329 10316 10304 10298 10297 10299 10306 10313 10323 10337 10348 10361 10381 10399 10417 10439 10453 10467 10487 10513 10536 10547 10562 10574 10590 10602 10621 10633
10690 10675 10654 10634 10611 10590 10575 10560 10540 10524 10505 10486 10467 10449 10429 10407 10385 10364 10346 10329 10315 10304 10298 10295 10297 10302 10312 10323 10334 10345 10359 10375 10394 10416 10429 10442 10459 10475 10495 10510 10531 10554 10567 10580 10594 10610 10618
10687 10670 10649 10630 10606 10583 10565 10555 10535 10519 10500 10482 10463 10445 10426 10408 10387 10368 10350 10333 10317 10307 10301 10299 10300 10305 10316 10324 10334 10345 10359 10376 10392 10408 10425 10437 10454 10468 10485 10502 10523 10544 10556 10567 10579 10596 10607
10682 10663 10645 10626 10604 10582 10561 10549 10532 10513 10497 10478 10460 10443 10427 10410 10391 10374 10355 10337 10322 10314 10309 10306 10307 10311 10319 10326 10336 10347 10363 10376 10385 10403 10419 10429 10446 10454 10474 10491 10513 10531 10543 10559 10568 10580 10590
10678 10661 10642 10622 10602 10579 10558 10542 10529 10512 10494 10477 10458 10442 10429 10412 10397 10378 10361 10344 10333 10323 10320 10317 10317 10319 10323 10330 10343 10356 10364 10377 10389 10405 10418 10429 10442 10451 10463 10483 10502 10519 10533 10549 10557 10565 10583
10674 10658 10640 10622 10602 10579 10557 10539 10529 10513 10494 10479 10459 10443 10426 10415 10399 10384 10372 10358 10345 10335 10330 10329 10328 10329 10333 10340 10348 10358 10365 10377 10389 10401 10410 10422 10435 10446 10461 10479 10497 10511 10521 10535 10547 10555 10566
10673 10656 10639 10621 10599 10577 10559 10538 10527 10512 10496 10479 10465 10446 10432 10415 10407 10394 10382 10372 10356 10346 10341 10339 10339 10340 10342 10347 10352 10358 10366 10378 10388 10395 10407 10416 10429 10442 10454 10470 10486 10497 10512 10522 10534 10544 10555
10670 10656 10638 10620 10600 10577 10558 10539 10525 10510 10496 10481 10467 10452 10438 10424 10409 10398 10389 10380 10366 10358 10352 10349 10348 10349 10352 10355 10360 10366 10372 10379 10388 10398 10406 10416 10425 10435 10445 10461 10475 10486 10497 10511 10525 10539 10548
10665 10653 10635 10620 10601 10577 10558 10538 10523 10511 10497 10485 10470 10458 10444 10434 10419 10407 10394 10387 10377 10371 10364 10358 10359 10360 10362 10364 10366 10372 10377 10384 10395 10404 10412 10419 10427 10437 10447 10459 10470 10481 10490 10503 10515 10526 10535
10659 10647 10630 10617 10602 10578 10560 10542 10521 10511 10498 10485 10475 10462 10447 10437 10428 10414 10407 10394 10387 10379 10374 10370 10368 10368 10369 10371 10372 10377 10384 10391 10398 10405 10411 10418 10425 10435 10445 10456 10464 10474 10487 10498 10510 10518 10526
10655 10640 10626 10613 10599 10581 10559 10543 10526 10511 10499 10486 10475 10462 10453 10439 10432 10422 10413 10406 10394 10390 10384 10379 10377 10375 10375 10376 10379 10382 10388 10393 10398 10405 10412 10417 10424 10432 10440 10449 10458 10468 10477 10488 10496 10505 10513
10647 10634 10621 10609 10593 10578 10560 10542 10524 10508 10497 10485 10475 10464 10452 10442 10433 10428 10417 10411 10403 10395 10389 10385 10382 10381 10379 10379 10382 10386 10389 10394 10399 10403 10408 10414 10420 10427 10434 10443 10451 10458 10466 10474 10483 10493 10502
10640 10628 10617 10602 10588 10574 10559 10542 10524 10509 10496 10485 10473 10463 10453 10445 10434 10426 10421 10413 10407 10400 10395 10390 10388 10385 10384 10383 10383 10384 10389 10393 10397 10402 10406 10411 10417 10422 10428 10435 10442 10449 10456 10464 10472 10480 10492
10630 10621 10612 10595 10581 10567 10554 10539 10522 10507 10494 10482 10473 10462 10453 10445 10436 10428 10420 10416 10409 10404 10398 10392 10389 10388 10388 10387 10387 10386 10387 10390 10394 10398 10402 10406 10411 10417 10423 10429 10436 10442 10448 10455 10463 10470 10478
10623 10615 10603 10586 10574 10561 10548 10535 10521 10504 10491 10479 10470 10461 10450 10444 10436 10428 10422 10415 10410 10405 10401 10397 10393 10390 10389 10389 10388 10389 10389 10389 10392 10395 10398 10403 10408 10413 10418 10423 10429 10435 10441 10447 10453 10460 10473
10614 10605 10587 10579 10567 10554 10542 10530 10513 10502 10488 10476 10466 10459 10448 10439 10432 10426 10421 10414 10409 10405 10401 10398 10395 10393 10391 10390 10389 10389 10389 10391 10392 10393 10395 10399 10403 10407 10412 10417 10422 10428 10433 10440 10447 10453 10461
10601 10591 10578 10569 10557 10546 10533 10523 10509 10495 10483 10472 10461 10453 10444 10436 10427 10421 10418 10412 10407 10403 10400 10397 10394 10393 10391 10390 10390 10390 10390 10390 10390 10392 10394 10396 10399 10402 10407 10411 10415 10421 10426 10433 10439 10447 10455
10587 10578 10569 10561 10549 10538 10525 10512 10502 10489 10477 10466 10456 10447 10439 10431 10423 10417 10410 10407 10404 10400 10396 10393 10391 10390 10389 10389 10388 10388 10389 10389 10389 10389 10391 10392 10395 10398 10402 10406 10410 10413 10420 10426 10432 10439 10445
10571 10565 10556 10548 10540 10527 10517 10505 10490 10482 10470 10460 10450 10440 10432 10425 10417 10414 10408 10401 10397 10396 10392 10390 10388 10386 10385 10385 10386 10386 10386 10386 10386 10387 10388 10389 10391 10394 10398 10401 10405 10410 10413 10418 10424 10430 10436
10558 10552 10545 10537 10528 10519 10505 10497 10482 10469 10462 10450 10442 10433 10426 10418 10411 10407 10402 10397 10393 10388 10386 10384 10382 10381 10380 10380 10380 10381 10382 10383 10383 10383 10384 10385 10387 10390 10393 10397 10401 10403 10407 10411 10416 10422 10427
10543 10538 10532 10528 10515 10505 10497 10486 10476 10459 10449 10441 10432 10425 10418 10411 10404 10398 10393 10389 10386 10383 10379 10376 10375 10375 10374 10374 10375 10375 10376 10377 10378 10379 10380 10381 10382 10385 10387 10392 10395 10399 10403 10407 10412 10415 10420
10530 10523 10519 10513 10507 10494 10486 10475 10465 10453 10436 10428 10421 10414 10408 10402 10395 10388 10384 10380 10376 10375 10374 10369 10367 10367 10367 10367 10368 10369 10370 10371 10373 10374 10375 10377 10378 10380 10383 10386 10391 10393 10398 10402 10404 10408 10413
10512 10509 10508 10500 10488 10483 10474 10463 10454 10442 10428 10417 10410 10404 10398 10393 10386 10379 10375 10371 10367 10365 10363 10363 10359 10358 10358 10359 10360 10361 10364 10365 10366 10368 10370 10373 10375 10377 10380 10382 10384 10388 10391 10395 10399 10403 10407